Regional Weather Roundup
Issued by NWS

Home | Current Version | Previous Version | Graphics & Text | Print | Product List | Glossary On
Versions: 1 2 3 4 5 6 7 8 9 10 11 12 13 14 15 16 17 18 19 20 21 22 23 24 25 26 27 28 29 30 31 32 33 34 35 36 37 38 39 40 41 42 43 44 45 46 47 48 49 50
000
ASUS45 KABQ 201101
RWRNM
NEW MEXICO REGIONAL WEATHER ROUNDUP
NATIONAL WEATHER SERVICE ALBUQUERQUE NM
500 AM MDT THU JUL 20 2017

NOTE: "FAIR" MEANS FEW OR NO CLOUDS BELOW 12,000 FEET AGL WITH NO
       SIGNIFICANT WEATHER OR OBSTRUCTIONS TO VISION.

      THIS PRODUCT IS RELEASED AS TWO VERSIONS.  ONE VERSION NEAR
      THE TOP OF THE HOUR CONTAINING PRELIMINARY DATA FROM ALBUQUERQUE
      AND OTHER STATIONS.  A FINAL VERSION WITH ADDITIONAL DATA IS
      ISSUED ABOUT 10 MINUTES AFTER THE HOUR.

NMZ501-503-504-510>518-201200-
NORTHWEST PLATEAU/NORTHCENTRAL MOUNTAINS

CITY           SKY/WX    TMP DP  RH WIND       PRES   REMARKS
FARMINGTON     FAIR      64  50  60 N6        30.22S
LOS ALAMOS     FAIR      64  46  53 CALM      30.40S
SANTA FE       FAIR      59  54  83 CALM      30.35S
TAOS           FAIR      54  39  58 NW3         N/A
ANGEL FIRE     FAIR      45  43  92 CALM      30.50R

$$
NMZ402-403-502-505>509-201200-
WESTCENTRAL MOUNTAINS/SOUTHWEST MOUNTAINS

CITY           SKY/WX    TMP DP  RH WIND       PRES   REMARKS
GALLUP         FAIR      62  54  74 S3        30.31S
GRANTS         FAIR      58  49  73 CALM      30.35R
SILVER CITY    FAIR      56  51  82 NW5       30.26S

$$
NMZ407-409-411-412-201200-
SOUTHERN DESERTS

CITY           SKY/WX    TMP DP  RH WIND       PRES   REMARKS
DEMING         CLOUDY    66  60  81 E7        30.20S
LAS CRUCES     FAIR      66  59  77 E5        30.21S
HOLLOMAN AFB   FAIR      67  60  77 NE5       30.23R
ALAMOGORDO     FAIR      68  57  68 NW5       30.22R
T OR C         FAIR      65  61  87 W5        30.23R

$$
NMZ519>523-201200-
CENTRAL VALLEYS/CENTRAL HIGHLANDS

CITY           SKY/WX    TMP DP  RH WIND       PRES   REMARKS
ALBUQUERQUE    MOCLDY    67  53  61 SE6       30.29S
DOUBLE EAGLE   FAIR      61  51  68 S6        30.32R
CLINES CORNERS FAIR      57  49  74 W12       30.39S
BELEN          NOT AVBL
SOCORRO        FAIR      65  59  80 S6        30.25R

$$
NMZ524>526-539-540-201200-
SOUTHCENTRAL MOUNTAINS

CITY           SKY/WX    TMP DP  RH WIND       PRES   REMARKS
RUIDOSO        FAIR      63  48  59 CALM      30.39S

$$
NMZ527>531-201200-
NORTHEAST HIGHLANDS/NORTHEAST PLAINS

CITY           SKY/WX    TMP DP  RH WIND       PRES   REMARKS
LAS VEGAS      FAIR      62  48  60 S15       30.36S
RATON          FAIR      59  48  67 N5        30.30R
CLAYTON        FAIR      68  58  70 SW14      30.20S

$$
NMZ532>537-201200-
EASTCENTRAL PLAINS

CITY           SKY/WX    TMP DP  RH WIND       PRES   REMARKS
SANTA ROSA     FAIR      62  55  78 CALM      30.24R
TUCUMCARI      FAIR      71  58  63 SW5       30.16S
CANNON AFB     FAIR      66  61  82 SW7       30.24S
CLOVIS AIRPORT FAIR      64  58  80 S3        30.24R

$$
NMZ028-029-538-201200-
SOUTHEAST PLAINS

CITY           SKY/WX    TMP DP  RH WIND       PRES   REMARKS
ROSWELL        FAIR      70  59  68 SE5       30.18R
ARTESIA        FAIR      70  57  64 N5        30.19R
CARLSBAD       FAIR      69  59  70 SW3       30.15R
HOBBS          FAIR      66  61  82 E3        30.21R


$$




USA.gov is the U.S. government's official web portal to all federal, state and local government web resources and services.